Flag for Germany Weather past 2 weeks in Dorsten, North Rhine-Westphalia, Germany

Now
55 °F

Light rain. Low clouds.


Feels Like: 55 °F
Forecast: 55 / 69 °F
Wind: 2 mph from Southwest

Location: Essen

Current Time: Aug 27, 2015 at 10:01:01 PM

Latest Report: Aug 27, 2015 at 9:00 PM


Visibility: 3 mi

Pressure: 29.89 "Hg

Humidity: 99%

Dew point: 54 °F

Location of DorstenLocation

Historic Weather in Dorsten — Graph

°F

Dorsten temperature yesterday

Maximum temperature yesterday: 78 °F (at 6:00 PM)
Minimum temperature yesterday: 62 °F (at 1:00 AM)
Average temperature yesterday: 69 °F

Past Weeks' High & Low Weather Summary

 TemperatureHumidityPressure
High84 °F (Aug 13, 5:00 PM)100% (Aug 16, 7:00 AM)30.25 "Hg (Aug 16, 7:00 AM)
Low51 °F (Aug 19, 4:00 AM)35% (Aug 23, 3:00 PM)29.53 "Hg (Aug 24, 5:00 PM)
Average65 °F76%29.94 "Hg
* Reported Aug 12 9:00 PM — Aug 27 9:00 PM, Dorsten, Weather by CustomWeather, © 2015

Note: Actual official high and low records may vary slightly from our data, if they occured in-between our weather recording intervals... More about our weather records

Advertising

Dorsten weather history for previous 24 hours

 ConditionsComfort  
Time TempWeatherWind HumidityBarometerVisibility
9:00 PM
Thu, Aug 27
55 °FLight rain. Low clouds.2 mph99%29.89 "Hg3 mi
8:00 PM55 °FLight rain. Low clouds.2 mph99%29.88 "Hg6 mi
7:00 PM55 °FLight rain. Low clouds.3 mph97%29.87 "Hg6 mi
6:00 PM55 °FLight rain. Low clouds.3 mph97%29.88 "Hg3 mi
5:00 PM56 °FLight rain. Low clouds.5 mph95%29.87 "Hg4 mi
4:00 PM57 °FLight rain. Low clouds.3 mph95%29.87 "Hg7 mi
3:00 PM57 °FLight rain. Low clouds.6 mph89%29.88 "Hg4 mi
2:00 PM59 °FRain. Low clouds.3 mph96%29.87 "Hg4 mi
1:00 PM62 °FLight rain. Low clouds.2 mph95%29.86 "Hg5 mi
12:00 PM64 °FLight rain. Low clouds.3 mph85%29.86 "Hg17 mi
11:00 AM64 °FOvercast.3 mph88%29.85 "Hg34 mi
10:00 AM63 °FLight rain. Low clouds.5 mph92%29.86 "Hg7 mi
9:00 AM64 °FLight rain. Low clouds.3 mph93%29.84 "Hg8 mi
8:00 AM66 °FLight rain. Overcast.5 mph82%29.82 "Hg28 mi
7:00 AM67 °FOvercast.7 mph77%29.80 "Hg43 mi
4:00 AM69 °FOvercast.3 mph73%29.77 "Hg43 mi
3:00 AM69 °FOvercast.2 mph69%29.78 "Hg43 mi
2:00 AM71 °FOvercast.5 mph59%29.78 "Hg43 mi
1:00 AM72 °FOvercast.6 mph56%29.76 "Hg43 mi
12:00 AM73 °FOvercast.9 mph54%29.76 "Hg43 mi
11:00 PM
Wed, Aug 26
74 °FOvercast.9 mph52%29.77 "Hg43 mi
10:00 PM74 °FOvercast.10 mph52%29.77 "Hg43 mi
Weather by CustomWeather, © 2015

See weather overviewHow to use our weather pages